www.pogodaiklimat.ru

Погода и климат >> Архив погоды >> Танзания >> Дар-эс-Салам


АРХИВ ПОГОДЫ в Дар-эс-Саламе

Время (UTC), дата Ветер
(напр.,м/с)
 
Видим.   Явления Облачность Т
(С)
Тd
(С)
f
(%)
Тe
(С)
Тes
(С)
Комфортность P
(гПа)
Po
(гПа)
Тmin
(С)
Tmax
(С)
R
(мм)
R24
(мм)
S
(см)
09 9.09 ЮВ 14 9000 м осадки на расстоянии 9/6 420 м
[Cu med, cong As trans]
+26.2 +21.2 74 +33 +33 очень
душно
1018.4 1012.4
12 9.09 Ю 12 900 м дождь 10/8 240 м
[Frnb As op]
+22.0 +21.4 96 +29 +29 очень
душно
1016.6 1010.6 80
15 9.09 ЮВ 7 20 км {туман} 6/5 420 м
[Cu med, cong Ac trans]
+23.8 +21.4 86 +30 +30 очень
душно
1016.7 1010.7 10
18 9.09 ЮЗ 4 30 км 9/1 420 м
[Cu hum Ac trans]
+23.3 +21.6 90 +31 +31 очень
душно
1018.2 1012.2 +29.6 90
21 9.09 Ю 5 30 км 9/1 400 м
[Cu hum Ac trans]
+23.2 +21.2 89 +31 +31 очень
душно
1017.7 1011.7
00 10.09 Ю 6 30 км 9/1 400 м
[Cu hum Ac trans]
+22.8 +20.8 88 +30 +30 очень
душно
1015.6 1009.6
03 10.09 Ю 5 30 км 9/3 400 м
[Cu med, cong Ac trans]
+22.6 +21.3 92 +30 +30 очень
душно
1016.6 1010.6
06 10.09 ЮВ 5 30 км {дождь} 9/6
[Sc Ac trans]
+33.6 +21.2 48 +41 +42 опасность
перегрева
1018.9 1012.9 +21.8 10
09 10.09 В 12 30 км 9/8 840 м
[Cu med, cong Ac trans]
+29.5 +21.0 60 +37 +37 очень
душно
1017.2 1011.2
12 10.09 В 15 30 км 9/6 800 м
[Cu med, cong Ac trans]
+29.5 +21.5 62 +37 +37 очень
душно
1014.8 1008.8
15 10.09 ЮВ 11 30 км 6/3 500 м
[Sc Ac trans Ci fib]
+26.6 +21.2 72 +34 +34 очень
душно
1015.6 1009.6
18 10.09 ЮВ 5 30 км 1/1 420 м
[Cu hum Ac lent]
+24.2 +21.9 87 +31 +31 очень
душно
1017.4 1011.4 +30.7
21 10.09 Ю 3 30 км 1/1 400 м
[Cu hum]
+22.7 +21.6 94 +30 +30 очень
душно
1017.4 1011.4
00 11.09 нст 2 30 км 1/1 360 м
[Cu hum]
+22.3 +21.6 96 +29 +29 очень
душно
1015.3 1009.3
03 11.09 Ю 4 20 км 4/1 360 м
[Cu hum Ac lent]
+21.8 +21.1 96 +28 +28 душно 1016.4 1010.4
06 11.09 ЮВ 5 30 км {туман} 8/8 420 м
[Cu med, cong]
+27.0 +22.7 77 +36 +37 очень
душно
1018.2 1012.2 +21.9
09 11.09 СВ 10 30 км {морось} 9/8 420 м
[Cu med, cong Ac trans]
+27.9 +22.5 72 +37 +37 очень
душно
1016.9 1010.9
12 11.09 СВ 14 30 км {морось} 8/8 540 м
[]
+28.4 +22.6 71 +38 +38 очень
душно
1014.3 1008.3 0.0
15 11.09 В 10 30 км 1/1 480 м
[Cu hum]
+26.9 +20.5 68 +33 +33 очень
душно
1015.3 1009.3
18 11.09 В 4 30 км 3/3 400 м
[Cu hum]
+23.8 +22.0 90 +31 +31 очень
душно
1017.0 1011.0 +29.5 0.0
21 11.09 штиль 0 30 км 3/3 360 м
[Cu hum]
+22.9 +21.8 94 +31 +31 очень
душно
1017.5 1011.5
00 12.09 штиль 0 30 км 3/3 360 м
[Cu hum]
+21.7 +21.0 96 +28 +28 душно 1016.2 1010.2
03 12.09 штиль 0 3000 м туман 1/1 330 м
[Cu hum]
+20.8 +20.5 98 +25 +25 комфорт 1017.0 1011.0
06 12.09 ЮВ 4 20 км туман 6/6 360 м
[Cu med, cong]
+26.4 +22.8 81 +35 +37 очень
душно
1018.8 1012.8 +21.1 0.0
09 12.09 В 8 30 км 8/8 660 м
[Cu med, cong]
+28.9 +21.9 66 +37 +38 очень
душно
1017.7 1011.7
12 12.09 СВ 13 30 км 6/5 700 м
[Cu med, cong]
+29.5 +22.1 64 +38 +38 очень
душно
1015.2 1009.2
15 12.09 СВ 13 30 км 1/1 570 м
[Cu hum]
+26.9 +21.2 71 +34 +34 очень
душно
1015.9 897.4 396
18 12.09 В 5 30 км 1/1 400 м
[Cu hum]
+23.8 +22.0 90 +31 +31 очень
душно
1016.7 1010.7 +30.2
00 13.09 штиль 0 30 км 3/3 360 м
[Cu hum]
+20.9 +20.5 98 +26 +26 душно 1015.1 1009.1
03 13.09 штиль 0 30 км 4/4 360 м
[Cu hum]
+21.3 +20.7 96 +27 +27 душно 1016.6 1010.6
06 13.09 ЮВ 5 30 км 8/8 360 м
[Cu med, cong]
+25.7 +22.9 85 +34 +35 очень
душно
1018.2 1012.2 +20.9
09 13.09 В 9 30 км 8/8 700 м
[Cu med, cong Ac trans]
+29.0 +21.9 66 +37 +38 очень
душно
1017.1 1011.1
12 13.09 В 12 30 км 8/6 700 м
[Cu med, cong Ac trans]
+28.7 +21.8 66 +37 +37 очень
душно
1014.4 1008.4
15 13.09 В 13 30 км 9/1 480 м
[Cu med, cong Ac trans]
+26.5 +21.4 74 +34 +34 очень
душно
1014.9 1008.9
18 13.09 ЮВ 5 30 км 5/5 400 м
[Sc]
+24.5 +22.1 86 +32 +32 очень
душно
1015.7 1009.7 +31.1
21 13.09 Ю 3 30 км 3/3 400 м
[Sc]
+22.7 +21.7 94 +30 +30 очень
душно
1015.9 1009.9
00 14.09 штиль 0 30 км 6/6 400 м
[Sc]
+22.4 +21.5 95 +30 +30 очень
душно
1015.2 1009.2
03 14.09 Ю 3 30 км 6/6 400 м
[Cu med, cong]
+21.8 +21.2 96 +28 +28 душно 1015.9 1009.9
06 14.09 ЮВ 4 30 км в посл. час туман 6/6 400 м
[Cu med, cong]
+26.6 +22.8 80 +35 +38 очень
душно
1017.5 1011.5 +21.5
09 14.09 СВ 9 30 км 8/6 600 м
[Cu med, cong]
+29.7 +22.6 66 +39 +40 очень
душно
1016.1 1010.1
12 14.09 СВ 12 30 км 6/6 700 м
[Cu med, cong]
+29.2 +22.0 65 +38 +38 очень
душно
1013.7 1007.7
15 14.09 В 10 30 км 5/5 540 м
[Cu med, cong]
+26.7 +21.2 72 +34 +34 очень
душно
1014.2 1008.2
18 14.09 ЮВ 8 30 км 1/1 450 м
[Cu hum]
+24.1 +22.3 90 +31 +31 очень
душно
1015.7 1009.7 +30.5
21 14.09 ЮВ 4 30 км 1/1 420 м
[Cu hum]
+22.7 +21.7 94 +30 +30 очень
душно
1016.1 1010.1
00 15.09 ЮЗ 4 30 км 3/3 400 м
[Cu hum]
+21.0 +20.5 97 +26 +26 душно 1015.4 1009.4
03 15.09 ЮЗ 3 30 км 3/3 360 м
[Cu med, cong]
+20.6 +20.1 97 +25 +25 комфорт 1016.4 1010.4
06 15.09 ЮВ 3 30 км в посл. час туман 6/6 400 м
[Cu med, cong]
+26.2 +22.8 82 +35 +38 очень
душно
1018.6 1012.6 +20.5
09 15.09 В 8 30 км 8/8 700 м
[Cu med, cong]
+28.9 +22.0 66 +37 +38 очень
душно
1017.3 1011.3
12 15.09 СВ 11 30 км 6/6 930 м
[Cu med, cong]
+30.3 +20.8 57 +38 +38 очень
душно
1014.5 1008.5
15 15.09 В 11 30 км 3/3 630 м
[Cu hum]
+26.9 +20.6 68 +33 +33 очень
душно
1015.1 1009.1
18 15.09 В 9 30 км 1/1 420 м
[Cu hum]
+24.1 +21.5 85 +31 +31 очень
душно
1016.3 1010.3 +30.6
21 15.09 штиль 0 30 км 1/1 400 м
[Cu hum]
+23.2 +21.7 91 +31 +31 очень
душно
1016.3 1010.3
00 16.09 штиль 0 30 км 3/3 400 м
[Cu hum]
+21.6 +20.8 95 +27 +27 душно 1014.7 1008.7
03 16.09 штиль 0 10 км туман 3/3 360 м
[Cu hum]
+21.6 +21.0 96 +27 +27 душно 1015.8 1009.8

 

Местоположение метеостанции Дар-эс-Салам (Танзания): широта -6.87 долгота 39.20 высота над уровнем моря 53 м.

В архиве по умолчанию представлена погода в Дар-эс-Саламе за последнюю неделю. Архивные данные за месяц целиком и за предыдущие месяцы, начиная с января 2011 года, Вы можете получить, выбрав интересующий диапазон дат из раскрывающегося списка и нажав кнопку "Ввод!".


*Определитесь, кто Вы:
робот инопланетянин человек

Внимание! Время в таблицах - всемирное. Для получения местного времени необходимо прибавить поправку, которая равна 3 ч.

Смотрите также архив погоды в соседних городах и на ближайших метеорологических станциях:

Погода в Занзибаре (Танзания) (72 км)
Погода в Морогоро (Танзания) (171 км)
Погода в Момбасе (Кения) (319 км)
Погода в Додоме (Танзания) (387 км)
Погода в Иринге (Танзания) (388 км)
Погода в Мтваре (Танзания) (392 км)
Погода в Вои (Кения) (392 км)
Погода в Малинди (Кения) (417 км)
Погода в Аэропорту Килиманжаро (Танзания) (450 км)
Погода в Макинду (Кения) (532 км)

Пояснения к столбцам:

Ветер - указаны скорость ветра в м/с - средняя за 10 мин, порывы в срок и между сроками (в фигурных скобках) и направление, откуда дует ветер: С - северный, СВ - северо-восточный, В - восточный, ЮВ - юго-восточный, Ю - южный, ЮЗ - юго-западный, З - западный, СЗ - северо-западный.
Видимость - горизонтальная дальность видимости в метрах или километрах. При видимости от 1 до 10 км при отсутствии осадков обычно наблюдается дымка, при ухудшении видимости до 1 км и менее - туман. В сухую погоду видимость может ухудшаться дымом, пылью или мглою.
Явления - указаны атмосферные явления, наблюдавшиеся в срок или в последний час перед сроком; фигурными скобками обозначены явления, наблюдавшиеся между сроками (за 1-3 часа до срока); квадратными скобками обозначены град или гололедные отложения с указанием их диаметра в мм.
Облачность - указаны через наклонную черту общая и нижняя облачность в баллах и высота нижней границы облаков в метрах; квадратными скобками обозначены формы облаков: Ci - перистые, Cs - перисто-слоистые, Cc - перисто-кучевые, Ac - высококучевые, As - высокослоистые, Sc - слоисто-кучевые, Ns - слоисто-дождевые, Cu - кучевые, Cb - кучево-дождевые. Подробнее классификацию облаков см. в Атласе облаков (PDF).
T - Температура воздуха - температура, измеренная на высоте 2 м над землей.
Td - Температура точки росы - температура, при понижении до которой содержащийся в воздухе водяной пар достигнет насыщения.
f - Относительная влажность воздуха - влажноcть воздуха, измеренная на высоте 2 м над землей.
Te - Эффективная температура - температура, которую ощущает одетый по сезону человек в тени. Характеристика душности погоды. При расчете учитывается влияние влажности воздуха и скорости ветра на теплоощущения человека.
Tes - Эффективная температура на солнце - температура, которую ощущает человек, с поправкой на солнечный нагрев. Характеристика знойности погоды. Зависит от высоты солнца над горизонтом, облачности и скорости ветра. Ночью, в пасмурную погоду, а также при ветре 12 м/с и более поправка равна нулю.
P - Атмосферное давление - приведенное к уровню моря атмосферное давление.
Po - Атмосферное давление - измеренное на уровне метеостанции атмосферное давление.
Tmin - Минимальная температура - минимум температуры воздуха на высоте 2 м над землей.
Tmax - Максимальная температура - максимум температуры воздуха на высоте 2 м над землей.
R - Количество осадков - Количество выпавших осадков за период времени, мм. При наведении курсора мыши на число - период времени, за который выпало указанное количество осадков.
R24 - Количество осадков - Количество выпавших осадков за 24 часа, мм.
S - Снежный покров - Высота снежного покрова, см. При наведении курсора мыши на число - состояние снежного покрова и степень покрытия местности в баллах.